Regional Weather Roundup
Issued by NWS

Home | Current Version | Previous Version | Text Only | Print | Product List | Glossary Off
Versions: 1 2 3 4 5 6 7 8 9 10 11 12 13 14 15 16 17 18 19 20 21 22 23 24 25 26 27 28

000
ASUS45 KSLC 150710
RWRUT

UTAH REGIONAL WEATHER ROUNDUP
NATIONAL WEATHER SERVICE SALT LAKE CITY UT
100 AM MDT TUE APR 15 2014

UTZ001>011-023>025-150800-

NORTHERN UTAH

CITY           SKY/WX    TMP DP  RH WIND       PRES   REMARKS
HILL AFB       CLEAR     41   1  18 E13       30.16F
LOGAN          CLEAR     37  19  48 CALM      30.16F
OGDEN          CLEAR     40   6  24 S9        30.15F WCI  34
PROVO AIRPORT  PTCLDY    39  25  56 SE5       30.20S
SALT LAKE CITY PTCLDY    42  16  34 SE9       30.15F
VERNAL         CLEAR     31  20  63 W5        30.21F WCI  26
WENDOVER       PTCLDY    45   7  21 E3        30.13F
HEBER CITY     PTCLDY    28  16  59 S3        30.22R
WEST JORDAN    CLEAR     39  21  48 S5        30.17F

$$

UTZ012>022-026-027-150800-

SOUTHERN UTAH

CITY           SKY/WX    TMP DP  RH WIND       PRES   REMARKS
BRYCE CANYON   CLEAR     17  11  77 SW5       30.28S WCI  10
CEDAR CITY     CLEAR     37   6  27 SE3       30.19F
MILFORD        CLEAR     33   3  28 W3        30.17F
MOAB/CYNLANDS  CLEAR     33  20  58 CALM      30.23R
PRICE          CLEAR     35  12  38 NE9       30.23S WCI  28
ST GEORGE      MOSUNNY   52  12  20 E8        30.13F
KANAB            N/A     41  12  30 NW14      30.24S

$$

REGIONAL REPORTS     COLORADO/ARIZONA

CITY           SKY/WX    TMP DP  RH WIND       PRES   REMARKS
CRAIG, CO      CLEAR     26  18  71 CALM      30.23S
GRAND JUNCTION CLEAR     34  22  61 E10       30.25S WCI  26
RIFLE          CLEAR     30  22  72 CALM      30.27F
MONTROSE       CLEAR     32  20  61 SE9       30.29S WCI  24
CORTEZ         CLEAR     26  14  60 E5        30.25F WCI  20
PAGE, AZ       CLEAR     47   5  18 CALM      30.20F
GRAND CANYON   PTCLDY    25   2  37 CALM      30.25F
KINGMAN        CLEAR     50   3  14 SE12      30.12
FLAGSTAFF      CLEAR     25   5  42 CALM      30.27S

$$

REGIONAL REPORTS    NEVADA/IDAHO/WYOMING

CITY           SKY/WX    TMP DP  RH WIND       PRES   REMARKS
LAS VEGAS, NV  PTCLDY    63  12  13 S9        30.04S
ELY            PTCLDY    32  12  43 S10       30.19S WCI  24
ELKO           PTCLDY    36  14  40 E3        30.11F
POCATELLO, ID  CLEAR     47  10  22 S20       30.07F
BURLEY         PTCLDY    47  15  27 S18       30.04F
EVANSTON, WY   PTCLDY    30   5  34 S10       30.19S WCI  21
ROCK SPRINGS   PTCLDY    35   8  32 SW14      30.15S WCI  26

$$



USA.gov is the U.S. government's official web portal to all federal, state and local government web resources and services.